owner,sensor,date,latitude,longitude,vertical_datum,direction_of_sea_water_velocity,sea_water_speed,upward_sea_water_velocity,qcFlag 
TABS,ioos:station:wmo:42043:1,2004-12-05T14:30:00Z,28.9818,-94.9186,2.0,228.4382071,3.301060436,-99999.0,'11133222,11111222,99999999' 
TABS,ioos:station:wmo:42043:1,2004-12-05T15:00:00Z,28.9818,-94.9186,2.0,253.4425464,4.632062176,-99999.0,'11133222,11111222,99999999' 
TABS,ioos:station:wmo:42043:1,2004-12-06T00:30:00Z,28.9818,-94.9186,2.0,202.1420105,10.61267638,-99999.0,'11111222,11111222,99999999' 
TABS,ioos:station:wmo:42043:1,2004-12-06T01:00:00Z,28.9818,-94.9186,2.0,196.0988378,7.68123037,-99999.0,'11133222,11111222,99999999' 
TABS,ioos:station:wmo:42043:1,2004-12-06T01:30:00Z,28.9818,-94.9186,2.0,191.2298299,7.034692602,-99999.0,'11133222,11111222,99999999' 
TABS,ioos:station:wmo:42043:1,2004-12-06T02:00:00Z,28.9818,-94.9186,2.0,189.8847246,5.126099882,-99999.0,'11133222,11111222,99999999' 
TABS,ioos:station:wmo:42043:1,2004-12-06T02:30:00Z,28.9818,-94.9186,2.0,184.2822664,6.427946795,-99999.0,'11133222,11111222,99999999' 
TABS,ioos:station:wmo:42043:1,2004-12-06T03:00:00Z,28.9818,-94.9186,2.0,169.3405316,6.217282365,-99999.0,'11133222,11111222,99999999' 
TABS,ioos:station:wmo:42043:1,2004-12-06T17:30:00Z,28.9818,-94.9186,2.0,271.1364463,10.59208195,-99999.0,'11111222,11111222,99999999' 
TABS,ioos:station:wmo:42043:1,2004-12-06T18:00:00Z,28.9818,-94.9186,2.0,269.1147746,7.770926586,-99999.0,'11133222,11111222,99999999' 
TABS,ioos:station:wmo:42043:1,2004-12-06T18:30:00Z,28.9818,-94.9186,2.0,264.3626819,11.60612338,-99999.0,'11111222,11111222,99999999' 
TABS,ioos:station:wmo:42043:1,2004-12-06T20:30:00Z,28.9818,-94.9186,2.0,259.5102727,9.722473965,-99999.0,'11133222,11111222,99999999' 
TABS,ioos:station:wmo:42043:1,2004-12-06T21:00:00Z,28.9818,-94.9186,2.0,242.827851,8.868742865,-99999.0,'11133222,11111222,99999999' 
TABS,ioos:station:wmo:42043:1,2004-12-06T21:30:00Z,28.9818,-94.9186,2.0,261.6830392,9.125968442,-99999.0,'11133222,11111222,99999999' 
TABS,ioos:station:wmo:42043:1,2004-12-06T22:00:00Z,28.9818,-94.9186,2.0,254.984321,8.80047726,-99999.0,'11133222,11111222,99999999' 
TABS,ioos:station:wmo:42043:1,2004-12-06T22:30:00Z,28.9818,-94.9186,2.0,260.5480956,8.708214513,-99999.0,'11133222,11111222,99999999' 
TABS,ioos:station:wmo:42043:1,2004-12-06T23:00:00Z,28.9818,-94.9186,2.0,256.5390469,10.13850088,-99999.0,'11111222,11111222,99999999' 
TABS,ioos:station:wmo:42043:1,2004-12-06T23:30:00Z,28.9818,-94.9186,2.0,233.220282,6.330007899,-99999.0,'11133222,11111222,99999999' 
TABS,ioos:station:wmo:42043:1,2004-12-07T00:00:00Z,28.9818,-94.9186,2.0,248.1643979,9.43703873,-99999.0,'11133222,11111222,99999999' 
TABS,ioos:station:wmo:42043:1,2004-12-07T00:30:00Z,28.9818,-94.9186,2.0,237.3804123,7.123594598,-99999.0,'11133222,11111222,99999999' 
TABS,ioos:station:wmo:42043:1,2004-12-07T01:00:00Z,28.9818,-94.9186,2.0,255.3536926,8.661437525,-99999.0,'11133222,11111222,99999999' 
TABS,ioos:station:wmo:42043:1,2004-12-07T01:30:00Z,28.9818,-94.9186,2.0,235.6275315,9.08663304,-99999.0,'11133222,11111222,99999999' 
TABS,ioos:station:wmo:42043:1,2004-12-07T02:00:00Z,28.9818,-94.9186,2.0,252.3786975,9.348636264,-99999.0,'11133222,11111222,99999999' 
TABS,ioos:station:wmo:42043:1,2004-12-07T02:30:00Z,28.9818,-94.9186,2.0,228.4753044,8.281310283,-99999.0,'11133222,11111222,99999999' 
TABS,ioos:station:wmo:42043:1,2004-12-07T03:00:00Z,28.9818,-94.9186,2.0,257.0641518,8.711061933,-99999.0,'11133222,11111222,99999999' 
TABS,ioos:station:wmo:42043:1,2004-12-07T03:30:00Z,28.9818,-94.9186,2.0,246.8597323,10.25503779,-99999.0,'11111222,11111222,99999999' 
TABS,ioos:station:wmo:42043:1,2004-12-07T04:30:00Z,28.9818,-94.9186,2.0,243.0076254,12.60282905,-99999.0,'11111222,11111222,99999999' 
TABS,ioos:station:wmo:42043:1,2004-12-07T05:00:00Z,28.9818,-94.9186,2.0,244.6936323,14.24719271,-99999.0,'11111222,11111222,99999999' 
TABS,ioos:station:wmo:42043:1,2004-12-07T05:30:00Z,28.9818,-94.9186,2.0,226.1555556,11.21699603,-99999.0,'11111222,11111222,99999999' 
TABS,ioos:station:wmo:42043:1,2004-12-07T06:00:00Z,28.9818,-94.9186,2.0,209.7274109,12.40223367,-99999.0,'11111222,11111222,99999999' 
TABS,ioos:station:wmo:42043:1,2004-12-07T06:30:00Z,28.9818,-94.9186,2.0,196.2739689,9.813200293,-99999.0,'11133222,11111222,99999999' 
TABS,ioos:station:wmo:42043:1,2004-12-07T07:00:00Z,28.9818,-94.9186,2.0,216.3244011,19.12686592,-99999.0,'11111222,11111222,99999999' 
TABS,ioos:station:wmo:42043:1,2004-12-07T07:30:00Z,28.9818,-94.9186,2.0,254.2222753,7.024649457,-99999.0,'11133222,11111222,99999999' 
TABS,ioos:station:wmo:42043:1,2004-12-07T08:00:00Z,28.9818,-94.9186,2.0,250.7640754,12.90018992,-99999.0,'11111222,11111222,99999999' 
TABS,ioos:station:wmo:42043:1,2004-12-07T08:30:00Z,28.9818,-94.9186,2.0,165.8452346,8.219549866,-99999.0,'11133222,11111222,99999999' 
TABS,ioos:station:wmo:42043:1,2004-12-07T09:00:00Z,28.9818,-94.9186,2.0,177.6411191,13.12111657,-99999.0,'11111222,11111222,99999999' 
TABS,ioos:station:wmo:42043:1,2004-12-07T09:30:00Z,28.9818,-94.9186,2.0,181.4685868,8.582820049,-99999.0,'11133222,11111222,99999999' 
TABS,ioos:station:wmo:42043:1,2004-12-07T10:00:00Z,28.9818,-94.9186,2.0,187.3766981,12.69507779,-99999.0,'11111222,11111222,99999999' 
TABS,ioos:station:wmo:42043:1,2004-12-07T10:30:00Z,28.9818,-94.9186,2.0,182.6273087,9.379861406,-99999.0,'11133222,11111222,99999999' 
TABS,ioos:station:wmo:42043:1,2004-12-07T11:00:00Z,28.9818,-94.9186,2.0,199.909307,7.987396322,-99999.0,'11133222,11111222,99999999' 
TABS,ioos:station:wmo:42043:1,2004-12-07T11:30:00Z,28.9818,-94.9186,2.0,173.0885786,9.972462083,-99999.0,'11133222,11111222,99999999' 
TABS,ioos:station:wmo:42043:1,2004-12-07T12:00:00Z,28.9818,-94.9186,2.0,186.6146116,11.97974958,-99999.0,'11111222,11111222,99999999' 
TABS,ioos:station:wmo:42043:1,2004-12-07T12:30:00Z,28.9818,-94.9186,2.0,185.0475037,9.547025715,-99999.0,'11133222,11111222,99999999' 
TABS,ioos:station:wmo:42043:1,2004-12-07T13:00:00Z,28.9818,-94.9186,2.0,213.3386795,7.241747027,-99999.0,'11133222,11111222,99999999' 
TABS,ioos:station:wmo:42043:1,2004-12-07T13:30:00Z,28.9818,-94.9186,2.0,206.6577406,8.268990265,-99999.0,'11133222,11111222,99999999' 
TABS,ioos:station:wmo:42043:1,2004-12-07T14:00:00Z,28.9818,-94.9186,2.0,199.9769813,8.341948214,-99999.0,'11133222,11111222,99999999' 
TABS,ioos:station:wmo:42043:1,2004-12-07T14:30:00Z,28.9818,-94.9186,2.0,224.2165119,6.725213751,-99999.0,'11133222,11111222,99999999' 
TABS,ioos:station:wmo:42043:1,2004-12-07T15:00:00Z,28.9818,-94.9186,2.0,255.2560507,10.21637901,-99999.0,'11111222,11111222,99999999' 
 
DISCLAIMER: The Gulf of Mexico Coastal and Ocean Observing (GCOOS) Data Portal aggregates data from the regional data providers for the convenience of all data users. Data published on this website should not be used for navigation or certain other uses as we cannot guarantee data accuracy or availability. The data and delivery services are provided 'as is' without warranty of any kind. Data Source: Gulf of Mexico Coastal Ocean Observing System Data Portal (http://data.gcoos.org/) 
